Regional Weather Roundup
Issued by NWS

Home | Current Version | Previous Version | Text Only | Print | Product List | Glossary Off
Versions: 1 2 3 4 5 6 7 8 9 10 11 12 13 14 15 16 17 18 19 20 21 22 23 24 25 26 27 28 29 30 31 32 33 34 35 36 37 38 39 40 41 42 43 44 45 46 47 48 49 50

000
ASUS43 KDTX 251010
RWRMI
MICHIGAN HOURLY REGIONAL WEATHER ROUNDUP
NATIONAL WEATHER SERVICE DETROIT/PONTIAC MI
600 AM EDT WED APR 25 2018

NOTE: "FAIR" INDICATES FEW OR NO CLOUDS BELOW 12,000 FEET WITH NO
SIGNIFICANT WEATHER AND/OR OBSTRUCTION TO VISIBILITY.

MIZ047>049-052>055-059>063-066>070-074>076-081>083-251100-
SOUTHEAST LOWER MICHIGAN

CITY           SKY/WX    TMP DP  RH WIND       PRES   REMARKS
ADRIAN         CLOUDY    50  50 100 N3        29.91S FOG
ALMA           CLOUDY    43  38  83 N14G20    29.99S
ANN ARBOR      CLOUDY    51  50  96 NW7       29.91S FOG
BAD AXE        CLOUDY    43  39  85 N12       29.95S
CARO           CLOUDY    43  40  89 N9        29.95S
DETROIT CITY   CLOUDY    50  49  96 N3        29.90F FOG
DETROIT        LGT RAIN  51  48  89 N6        29.90F FOG
FLINT          CLOUDY    47  46  97 N17G23    29.94S
GROSSE ILE     DRIZZLE   50  49  97 N5        29.89S
HILLSDALE      CLOUDY    50  48  93 N10G17    29.91S FOG
HOWELL         CLOUDY    50  49  99 N5        29.92S FOG

CITY           SKY/WX    TMP DP  RH WIND       PRES   REMARKS
JACKSON        CLOUDY    52  50  93 NW8       29.92S FOG
LAMBERTVILLE   CLOUDY    52  49  92 N5        29.90S FOG
LANSING        CLOUDY    45  44  97 N13       29.98R
LAPEER         DRIZZLE   49  48  97 N10       29.92S
MASON          CLOUDY    50  47  88 N10G20    29.94R
MONROE         DRIZZLE   50  48  93 N3        29.89S
MT. CLEMENS    DRIZZLE   50  50 100 NW3       29.89S
PONTIAC        CLOUDY    50  50 100 N8        29.90F FOG
PORT HOPE        N/A     39  37  92 NW10      29.93F WCI  32
PORT HURON     DRIZZLE   50  48  93 NW3       29.91S
TRI CITIES     CLOUDY    44  39  82 N15       29.98R
MIDLAND        DRIZZLE   42  37  84 NW8       29.98S
TROY           MIX PCPN  51  50  97 N3        29.92F
SAGINAW HB     CLOUDY    45  41  87 N12G17    29.96S
$$
MIZ043>046-050>051-056>058-064>065-071>073-077>080-251100-
SOUTHWEST LOWER MICHIGAN

CITY           SKY/WX    TMP DP  RH WIND       PRES   REMARKS
BATTLE CREEK   CLOUDY    48  45  89 N12       29.97R
BENTON HARBOR  CLOUDY    46  37  71 N5        30.00R
BIG RAPIDS     FAIR      40  32  73 N7        30.02R WCI  35
COLDWATER      CLOUDY    52  51  96 N10       29.94R
FREMONT        FAIR      41  27  56 N9        30.03R
HOLLAND        FAIR      46  31  55 N6G21     30.01S
GRAND RAPIDS   CLOUDY    46  36  68 N14       29.99S
IONIA          CLOUDY    45  38  78 N9G17     29.98S
KALAMAZOO      CLOUDY    49  43  80 N17       29.98R
LUDINGTON      MOCLDY    38  35  89 N6        30.06S WCI  33
MARSHALL       CLOUDY    48  48  98 N6G17     29.94S
MOUNT PLEASANT CLOUDY    43  35  73 N8        29.99S
MUSKEGON       FAIR      44  30  57 N8        30.04R
SOUTH HAVEN    FAIR      47  39  72 NE13      29.99S
$$
MIZ016>042-251100-
NORTHERN LOWER MICHIGAN

CITY           SKY/WX    TMP DP  RH WIND       PRES   REMARKS
ALPENA         LGT RAIN  39  37  92 NW8       30.00S WCI  33
BEAVER ISLAND  FAIR      36  32  88 NW8       30.07F WCI  29
BELLAIRE       CLOUDY    38  35  89 SW3       30.06S
CADILLAC       FAIR      36  34  92 N7        30.02S WCI  30
CHARLEVOIX     FAIR      35  32  89 W7        30.09R WCI  29
FRANKFORT      FAIR      38  32  80 N10       30.08S WCI  31
GAYLORD        CLOUDY    36  36 100 NW3       30.01F
GRAYLING       CLOUDY    37  34  87 NW3       30.00F
HARBOR SPRINGS CLOUDY    37  34  90 W3        30.04S
HOUGHTON LAKE  CLOUDY    39  32  76 N10       30.00F WCI  32
MANISTEE       MOCLDY    40  33  76 N7        30.07S
OSCODA         MIX PCPN  40  37  87 NW12G17   29.96F WCI  33
PELLSTON       CLOUDY    37  34  89 NW8       30.04F WCI  31
ROGERS CITY    LGT RAIN  39  36  87 NW8G16    30.02S WCI  34
TRAVERSE CITY  CLOUDY    40  34  79 NW8       30.06F WCI  34
$$
MIZ007>008-015-251100-
EASTERN UPPER MICHIGAN

CITY           SKY/WX    TMP DP  RH WIND       PRES   REMARKS
KINROSS        CLOUDY    38  33  82 N10       30.04S WCI  31
MACKINAC ISLAN CLOUDY    38  36  91 NW8       30.03S WCI  32
NEWBERRY       FAIR      32  32  99 N6        30.07S WCI  26
MUNISING         N/A     35  31  85 N17       30.13F WCI  25
$$
MIZ004>006-011>014-085-251100-
CENTRAL UPPER MICHIGAN

CITY           SKY/WX    TMP DP  RH WIND       PRES   REMARKS
MANISTIQUE     CLOUDY    32  31  96 NW9       30.10S WCI  24
ESCANABA       FAIR      33  27  78 N8        30.15R WCI  26
MENOMINEE      FAIR      34  29  82 N12       30.15S WCI  25
SAWYER-GWINN   FAIR      31  26  81 N13       30.14F WCI  22
$$
MIZ001>003-009>011-084-251100-
WESTERN UPPER MICHIGAN

CITY           SKY/WX    TMP DP  RH WIND       PRES   REMARKS
IRON MOUNTAIN  FAIR      30  26  85 NW7       30.15S WCI  23
HOUGHTON       FAIR      31  22  69 NW9       30.20S WCI  23
COPPER HARBOR    N/A     34  29  82 NE8       30.20S WCI  27
IRONWOOD       FAIR      23  22  96 CALM      30.23F
$$

ABBREVIATIONS USED IN REMARKS
   TC - TEMPERATURE IN CELSIUS
  WCI - WIND CHILL INDEX
   HX - HEAT INDEX
  VSB - VISIBILITY





USA.gov is the U.S. government's official web portal to all federal, state and local government web resources and services.